Home > Weather > Pictou County > Past weeks

Flag for Canada Past Weather in Pictou County, Nova Scotia, Canada — Yesterday and Last 2 Weeks

Now
71 °F

Mild.


Feels Like: 72 °F
Forecast: 60 / 74 °F
Wind: 9 mph from South

Location: Caribou Point

Current Time: Jun 27, 2016 at 11:54:47 AM

Latest Report: Jun 27, 2016 at 11:00 AM


Visibility: N/A

Pressure: 30.02 "Hg

Humidity: 77%

Dew Point: 63 °F

Location of Pictou CountyLocation

Past Weather in Pictou County — Graph

°F

Pictou County Temperature Yesterday

Maximum temperature yesterday: 67 °F (at 3:00 PM)
Minimum temperature yesterday: 58 °F (at 5:00 AM)
Average temperature yesterday: 63 °F

High & Low Weather Summary for the Past Weeks

 TemperatureHumidityPressure
High82 °F (Jun 19, 5:00 PM)99% (Jun 22, 3:00 AM)30.25 "Hg (Jun 22, 3:00 AM)
Low45 °F (Jun 18, 5:00 AM)27% (Jun 19, 3:00 PM)29.34 "Hg (Jun 13, 5:00 AM)
Average59 °F74%29.84 "Hg
* Reported Jun 12 10:00 AM — Jun 27 10:00 AM, Pictou County, Weather by CustomWeather, © 2016

Note: Actual official high and low records may vary slightly from our data, if they occured in-between our weather recording intervals... More about our weather records

Advertising

Pictou County Weather History for the Previous 24 Hours

Scroll right to see more
 ConditionsComfort  
Time TempWeatherWind HumidityBarometerVisibility
10:00 AM
Mon, Jun 27
69 °FMild.6 mph77%30.03 "HgN/A
9:00 AM66 °FMild.3 mph81%30.05 "HgN/A
8:00 AM63 °FMild.9 mph89%30.06 "HgN/A
7:00 AM61 °FCool.7 mph92%30.06 "HgN/A
6:00 AM60 °FCool.8 mph93%30.07 "HgN/A
5:00 AM60 °FCool.8 mph92%30.06 "HgN/A
4:00 AM60 °FCool.3 mph93%30.07 "HgN/A
3:00 AM61 °FCool.14 mph93%30.06 "HgN/A
2:00 AM62 °FCool.10 mph93%30.07 "HgN/A
1:00 AM61 °FCool.15 mph93%30.08 "HgN/A
12:00 AM60 °FCool.9 mph93%30.10 "HgN/A
11:00 PM
Sun, Jun 26
61 °FCool.14 mph92%30.11 "HgN/A
10:00 PM61 °FCool.14 mph90%30.14 "HgN/A
9:00 PM62 °FCool.15 mph87%30.13 "HgN/A
8:00 PM63 °FMild.14 mph83%30.14 "HgN/A
7:00 PM63 °FMild.14 mph81%30.14 "HgN/A
6:00 PM64 °FMild.16 mph76%30.14 "HgN/A
5:00 PM65 °FMild.13 mph73%30.15 "HgN/A
4:00 PM67 °FMild.12 mph67%30.16 "HgN/A
3:00 PM67 °FMild.9 mph65%30.17 "HgN/A
2:00 PM66 °FMild.5 mph63%30.18 "HgN/A
1:00 PM65 °FMild.7 mph73%30.20 "HgN/A
12:00 PM66 °FMild.7 mph70%30.22 "HgN/A
11:00 AM64 °FMild.8 mph73%30.22 "HgN/A
Weather by CustomWeather, © 2016

See weather overviewHow to use our weather pages